Regional Weather Roundup
Issued by NWS

Home | Current Version | Previous Version | Text Only | Print | Product List | Glossary On
Versions: 1 2 3 4 5 6 7 8 9 10 11 12 13 14 15 16 17 18 19 20 21 22 23 24 25 26 27 28 29 30 31 32 33 34 35 36 37 38 39 40 41 42 43 44 45 46 47 48 49 50
000
ASUS43 KOAX 250410
RWRNE

WEATHER ROUNDUP FOR NEBRASKA
NATIONAL WEATHER SERVICE OMAHA NE
1100 PM CDT MON APR 24 2017

NOTES: SATELLITE DATA IS BEING USED TO AUGMENT CLOUD COVER ABOVE
       12000 FEET.
       "FAIR" INDICATES FEW OR NO CLOUDS BELOW 12,000 FEET WITH NO
       SIGNIFICANT WEATHER AND/OR OBSTRUCTIONS TO VISIBILITY.

  * THESE STATIONS DO NOT REPORT WEATHER SUCH AS RAIN...SNOW OR FOG.

NEZ001>004-019>022-054>056-250500-
NEBRASKA PANHANDLE

CITY           SKY/WX    TMP DP  RH WIND       PRES   REMARKS
SCOTTSBLUFF    LGT RAIN  51  46  83 SE5       29.58F
ALLIANCE       LGT RAIN  50  44  80 NE6       29.60R
CHADRON        CLOUDY    50  46  86 E8        29.59F
KIMBALL        CLOUDY    47  46  96 SE6       29.61F
SIDNEY         LGT RAIN  48  44  86 N8        29.62R
$$

NEZ057>060-069>072-079>082-250500-
SOUTHWEST NEBRASKA

CITY           SKY/WX    TMP DP  RH WIND       PRES   REMARKS
NORTH PLATTE   CLOUDY    54  41  61 NE15      29.56F
IMPERIAL       CLOUDY    54  44  69 N8        29.56S
LEXINGTON      CLOUDY    57  41  55 NE13      29.55R
MCCOOK         PTCLDY    56  43  61 NE8       29.53R
OGALLALA       MOCLDY    57  41  54 E13       29.58F
$$

NEZ005>010-023>029-035>040-094-250500-
NORTH CENTRAL NEBRASKA

CITY           SKY/WX    TMP DP  RH WIND       PRES   REMARKS
VALENTINE      PTCLDY    46  38  73 NE8       29.62S
AINSWORTH      CLEAR     42  40  91 NE9       29.61F
BROKEN BOW     MOCLDY    49  39  68 NE6       29.58F
O`NEILL        PTCLDY    45  38  77 N3        29.62S
ORD            PTCLDY    50  40  68 N7        29.58S
THEDFORD       PTCLDY    47  41  81 E5        29.61F
$$

NEZ041-046>049-061>064-073>077-083>087-250500-
SOUTH CENTRAL NEBRASKA

CITY           SKY/WX    TMP DP  RH WIND       PRES   REMARKS
GRAND ISLAND   CLOUDY    55  44  66 N14       29.57S
AURORA         CLOUDY    58  44  58 N12       29.56F
HASTINGS       MOCLDY    59  42  53 N16G23    29.54F
HEBRON         PTCLDY    63  41  45 N7G17     29.51F
HOLDREGE       CLOUDY    57  40  52 NE10      29.54F
KEARNEY *      CLOUDY    55  39  54 N15       29.56R
YORK           MOCLDY    57  45  62 N13       29.55F
$$

NEZ011>018-030>034-042>045-250500-
NORTHEAST NEBRASKA

CITY           SKY/WX    TMP DP  RH WIND       PRES   REMARKS
NORFOLK        PTCLDY    49  39  68 NW12      29.57S
ALBION         CLEAR     50  40  70 NW9       29.58S
BLAIR          CLOUDY    65  45  48 S8        29.53R
FREMONT        CLOUDY    61  45  55 N13       29.55R
TEKAMAH        CLOUDY    60  45  57 NW9       29.54R
WAYNE          CLOUDY    49  42  75 N8        29.57S
$$

NEZ050>053-065>068-078-088>093-250500-
SOUTHEAST NEBRASKA

CITY           SKY/WX    TMP DP  RH WIND       PRES   REMARKS
LINCOLN        CLEAR     62  48  60 NW7       29.53R
OMAHA EPPLEY   CLOUDY    62  44  51 S9        29.52F
BEATRICE       CLOUDY    64  49  59 S12       29.51S
FALLS CITY     CLEAR     57  45  64 SE8       29.55S
NEBRASKA CITY  CLEAR     61  39  43 S10       29.54F
PLATTSMOUTH    CLEAR     63  39  42 S10       29.54S
$$

NEZ044-045-051>053-067-250500-
OMAHA AREA

CITY           SKY/WX    TMP DP  RH WIND       PRES   REMARKS
OMAHA EPPLEY   CLOUDY    62  44  51 S9        29.52F
BLAIR          CLOUDY    65  45  48 S8        29.53R
FREMONT        CLOUDY    61  45  55 N13       29.55R
MILLARD        PTCLDY    64  47  54 SE5       29.53S
OFFUTT AFB     PTCLDY    64  43  46 S10       29.53S
PLATTSMOUTH    CLEAR     63  39  42 S10       29.54S
WAHOO          CLOUDY    60  47  61 NW12G21   29.54R
$$




USA.gov is the U.S. government's official web portal to all federal, state and local government web resources and services.